sat.trackr.live / text

‹ back to catalog

2024-085D

NORAD 59680 · 2024-085D

PAYLOAD ACTIVE UNKNOWN

§ Identity

Operator
Country
PRC
Launch date
2024-05-07
Launch site
TAISC
Launch vehicle
Mass (kg)
RCS (m²)

External: N2YO · Heavens-Above · Gunter

§ Orbital elements

Epoch: 2026-09-22T23:46:59.643840Z

Period
93.64 min
Inclination
97.3167°
Eccentricity
0.0013838
Mean motion
15.37795058 rev/d
Perigee alt
443.2 km
Apogee alt
462.1 km
Semi-major
6,830.8 km
B*
2.4960e-4
RAAN
341.3387°
Arg perigee
67.2164°
Mean anomaly
293.0541°
Rev number
13,268

§ Raw data

2024-085D1 59680U 24085D   26265.99096810  .00009216  00000+0  24960-3 0  99912 59680  97.3167 341.3387 0013838  67.2164 293.0541 15.37795058132685

JSON: /api/v1/satellites/59680 · /tle

For live sub-satellite position, see the globe view (requires WebGL).

§ Visibility from observer

Set your observer location to see the next 7 days of passes ≥ 10°. The values pass through the URL so the page stays shareable.

No JS? Fill the form by hand. The geolocation button needs JavaScript.